CW8822 Caguas PR US current weather conditions

sailwx.info

Wind from 119 at 0 knots gusting 8

Air temperature 29.4° C
Dewpoint 22.9° C

Last reported at 2016-May-24 16:55 UTC.
Time now 2016-May-24 17:44 UTC

Location: N 18°12' W 066°01'.
View on Google Maps.

See reports from other nearby stations

  
Tides and Currents Weather Stations Pressure Air Temp Water Temp Dewpoint Dewpoint Depression Visibility Wind Speed Wind Dir Waves Ship Positions
date/time (UTC)wind fromknots sea level pressurealtimeterstation pressurevisibilityair tempwater tempwave heightnotes
2016-May-24 16:55 119 0 gusting 8 29.4
2016-May-24 16:42 082 4 gusting 11 29.4
2016-May-24 16:25 089 3 gusting 13 29.4
2016-May-24 16:10 170 0 gusting 11 28.9
2016-May-24 15:55 115 2 gusting 11 29.4
2016-May-24 15:40 117 1 gusting 7 29.4
2016-May-24 15:25 125 0 gusting 7 29.4
2016-May-24 15:10 083 1 gusting 10 28.3
2016-May-24 14:55 070 0 gusting 9 28.3
2016-May-24 14:40 094 2 gusting 10 28.3
2016-May-24 14:25 157 1 gusting 8 28.3
2016-May-24 14:10 081 27.8
2016-May-24 13:55 131 0 gusting 6 27.8
2016-May-24 13:40 097 1 gusting 9 27.8
2016-May-24 13:25 137 0 gusting 9 27.8
2016-May-24 13:10 152 27.8
2016-May-24 12:55 070 0 gusting 6 27.8
2016-May-24 12:39 080 27.8
2016-May-24 12:24 065 1 gusting 7 27.2
2016-May-24 12:09 080 26.7
2016-May-24 11:54 128 0 gusting 9 26.1
2016-May-24 11:39 127 26.1
2016-May-24 11:24 149 25.6
2016-May-24 11:09 130 25.0
2016-May-24 10:54 147 24.4
2016-May-24 10:39 146 0 gusting 4 24.4
2016-May-24 10:24 132 24.4
2016-May-24 10:09 134 24.4
2016-May-24 09:55 135 0 gusting 5 24.4
2016-May-24 09:39 143 24.4
2016-May-24 09:24 130 0 gusting 5 24.4
2016-May-24 09:09 129 24.4
2016-May-24 08:54 115 24.4
2016-May-24 08:39 130 24.4
2016-May-24 08:24 130 24.4
2016-May-24 08:09 130 24.4
2016-May-24 07:54 139 0 gusting 4 25.0
2016-May-24 07:39 138 0 gusting 6 25.0
2016-May-24 07:24 082 25.0
2016-May-24 07:09 084 25.0
2016-May-24 06:54 080 25.0
2016-May-24 06:39 082 25.0
2016-May-24 06:24 104 25.0
2016-May-24 06:11 127 25.0
2016-May-24 05:54 127 25.0
2016-May-24 05:39 134 25.0
2016-May-24 05:24 138 25.0
2016-May-24 05:09 138 25.0
2016-May-24 04:54 138 25.0
2016-May-24 04:39 138 25.0
2016-May-24 04:24 138 25.0
2016-May-24 04:09 138 25.0
2016-May-24 03:54 138 25.0
2016-May-24 03:39 134 25.0
2016-May-24 03:24 134 25.0
2016-May-24 03:08 134 25.0
2016-May-24 02:53 128 25.0
2016-May-24 02:39 128 25.0
2016-May-24 02:23 128 25.0
2016-May-24 02:09 128 25.0
2016-May-24 01:53 130 25.0
2016-May-24 01:38 130 25.0
2016-May-24 01:23 102 25.6
2016-May-24 01:10 104 25.6
2016-May-24 00:53 088 25.6
2016-May-24 00:38 117 0 gusting 6 25.6
2016-May-24 00:23 142 25.6
2016-May-24 00:08 107 25.6
2016-May-23 23:55 138 25.6
2016-May-23 23:38 125 2 gusting 9 25.6
2016-May-23 23:25 130 1 gusting 5 26.1
2016-May-23 23:08 121 26.1
2016-May-23 22:53 108 26.1
2016-May-23 22:38 045 26.7
2016-May-23 22:23 178 27.2
2016-May-23 22:08 159 27.2
2016-May-23 21:53 104 0 gusting 7 27.2
2016-May-23 21:38 122 2 gusting 10 27.2
2016-May-23 21:23 120 27.2
2016-May-23 21:08 069 2 gusting 10 27.8
2016-May-23 20:53 109 2 gusting 12 28.3
2016-May-23 20:38 103 2 gusting 9 28.9
2016-May-23 20:23 105 2 gusting 9 28.3
2016-May-23 20:08 144 1 gusting 13 28.3
2016-May-23 19:53 117 28.9
2016-May-23 19:38 148 28.9
2016-May-23 19:23 126 1 gusting 11 28.3
2016-May-23 19:08 063 1 gusting 13 28.9
2016-May-23 18:55 138 2 gusting 15 28.9
2016-May-23 18:38 144 3 gusting 13 29.4
2016-May-23 18:23 105 2 gusting 14 29.4
2016-May-23 18:08 088 3 gusting 13 29.4
2016-May-23 17:53 107 0 gusting 13 29.4
2016-May-23 17:38 092 3 gusting 11 30.0
2016-May-23 17:23 084 0 gusting 11 29.4
2016-May-23 17:08 115 0 gusting 14 28.9
2016-May-23 16:53 144 0 gusting 12 29.4
2016-May-23 16:38 094 1 gusting 13 28.9
2016-May-23 16:23 096 4 gusting 10 28.9
2016-May-23 16:08 164 5 gusting 16 29.4
2016-May-23 15:53 125 4 gusting 16 29.4
2016-May-23 15:38 071 2 gusting 12 29.4
2016-May-23 15:23 165 2 gusting 14 28.9
2016-May-23 15:08 140 2 gusting 10 29.4
2016-May-23 14:53 146 0 gusting 9 28.9
2016-May-23 14:38 148 5 gusting 13 28.3
2016-May-23 14:23 133 2 gusting 12 28.3
2016-May-23 14:08 107 2 gusting 10 27.8
2016-May-23 13:53 115 1 gusting 18 28.3
2016-May-23 13:37 128 1 gusting 10 28.3
2016-May-23 13:22 088 2 gusting 13 27.8
2016-May-23 13:07 143 28.3
2016-May-23 12:52 076 1 gusting 10 27.8
2016-May-23 12:37 084 0 gusting 8 27.2
2016-May-23 12:22 137 27.2
2016-May-23 12:07 118 0 gusting 9 27.2
2016-May-23 11:52 126 0 gusting 6 26.7
2016-May-23 11:37 103 26.1
2016-May-23 11:22 126 25.6
2016-May-23 11:07 115 25.0
2016-May-23 10:52 114 25.0
2016-May-23 10:37 059 24.4
2016-May-23 10:22 165 24.4
2016-May-23 10:07 170 24.4
2016-May-23 09:52 103 24.4
2016-May-23 09:37 148 25.0
2016-May-23 09:22 148 25.0
2016-May-23 09:07 126 25.0
2016-May-23 08:52 126 25.0
2016-May-23 08:37 126 25.0
2016-May-23 08:22 126 24.4
2016-May-23 08:07 126 25.0
2016-May-23 07:52 126 25.0
2016-May-23 07:37 127 25.0
2016-May-23 07:22 126 25.0
2016-May-23 07:07 121 25.0
2016-May-23 06:52 143 25.0
2016-May-23 06:37 143 24.4
2016-May-23 06:22 140 24.4
2016-May-23 06:07 142 24.4
2016-May-23 05:52 144 25.0
2016-May-23 05:37 136 25.0
2016-May-23 05:22 136 25.0
2016-May-23 05:07 133 0 gusting 9 25.0
2016-May-23 04:52 102 25.0
2016-May-23 04:37 135 25.0
2016-May-23 04:21 153 0 gusting 6 25.0
2016-May-23 04:06 123 25.0
2016-May-23 03:51 135 25.0
2016-May-23 03:36 135 1 gusting 6 25.0
2016-May-23 03:21 132 25.0
2016-May-23 03:06 148 25.0
2016-May-23 02:51 131 25.0
2016-May-23 02:36 121 25.0
2016-May-23 02:21 129 25.0
2016-May-23 02:06 140 25.0
2016-May-23 01:51 144 25.0
2016-May-23 01:36 135 25.0
2016-May-23 01:21 129 25.0
2016-May-23 01:06 116 25.6
2016-May-23 00:51 153 25.6
2016-May-23 00:36 161 25.6
2016-May-23 00:21 109 25.6
2016-May-23 00:06 123 25.6
2016-May-22 23:51 144 0 gusting 6 25.6
2016-May-22 23:36 098 25.6
2016-May-22 23:21 151 0 gusting 6 26.1
2016-May-22 23:06 153 26.1
2016-May-22 22:51 147 0 gusting 6 26.7
2016-May-22 22:36 098 26.7
2016-May-22 22:21 105 27.2
2016-May-22 22:06 094 27.2
2016-May-22 21:51 119 27.8
2016-May-22 21:36 077 28.3
2016-May-22 21:21 061 0 gusting 7 27.8
2016-May-22 21:06 144 2 gusting 10 28.3
2016-May-22 20:51 075 28.3
2016-May-22 20:36 184 28.3
2016-May-22 20:21 135 29.4
2016-May-22 20:06 152 0 gusting 11 28.9
2016-May-22 19:51 121 1 gusting 13 28.9
2016-May-22 19:36 151 0 gusting 10 29.4
2016-May-22 19:21 150 1 gusting 11 29.4
2016-May-22 19:06 126 2 gusting 6 29.4
2016-May-22 18:51 109 2 gusting 10 28.9
2016-May-22 18:36 121 4 gusting 12 28.9
2016-May-22 18:21 136 2 gusting 8 29.4
2016-May-22 18:06 144 29.4
2016-May-22 17:51 069 2 gusting 7 30.0
2016-May-22 17:36 159 1 gusting 8 30.0
2016-May-22 17:21 118 30.0
2016-May-22 17:06 146 2 gusting 11 29.4